This is the latest recevied weather packets stored in our database for station/object JE0GNV-13. If no packets are shown the sender has not sent any weather packets the latest 10 day(s).
| Time | Temp. | Humidity | Pressure | Rain* | Wind** | Luminosity | Snow |
|---|---|---|---|---|---|---|---|
| 1777836000 | 15° C | 98% | 997.7 hPa | 4.57 mm | - | - | - |
| 1777835400 | 15° C | 99% | 997.8 hPa | 3.81 mm | - | - | - |
| 1777834802 | 14.44° C | 99% | 997.4 hPa | 3.3 mm | - | - | - |
| 1777834201 | 14.44° C | 98% | 997.5 hPa | 2.54 mm | - | - | - |
| 1777833601 | 14.44° C | 98% | 997.5 hPa | 3.05 mm | - | - | - |
| 1777833001 | 14.44° C | 98% | 997.8 hPa | 4.06 mm | - | - | - |
| 1777832400 | 14.44° C | 98% | 998 hPa | 4.57 mm | - | - | - |
| 1777831801 | 14.44° C | 98% | 998 hPa | 4.83 mm | - | - | - |
| 1777831200 | 14.44° C | 98% | 998.5 hPa | 5.08 mm | - | - | - |
| 1777830601 | 14.44° C | 98% | 998.5 hPa | 5.08 mm | - | - | - |
| 1777830001 | 13.89° C | 98% | 998.5 hPa | 4.83 mm | - | - | - |
| 1777829400 | 13.89° C | 98% | 999 hPa | 5.08 mm | - | - | - |
| 1777828802 | 13.89° C | 98% | 998.9 hPa | 5.33 mm | - | - | - |
| 1777828200 | 13.89° C | 98% | 998.9 hPa | 5.33 mm | - | - | - |
| 1777827601 | 13.89° C | 98% | 999.6 hPa | 5.59 mm | - | - | - |
| 1777827001 | 13.89° C | 98% | 999.9 hPa | 6.35 mm | - | - | - |
| 1777826401 | 13.89° C | 98% | 1000 hPa | 6.35 mm | - | - | - |
| 1777825802 | 13.89° C | 98% | 1000.7 hPa | 5.59 mm | - | - | - |
| 1777825200 | 13.33° C | 98% | 1001 hPa | 4.83 mm | - | - | - |
| 1777824600 | 13.33° C | 98% | 1001.1 hPa | 4.83 mm | - | - | - |
| 1777824001 | 13.33° C | 98% | 1001.3 hPa | 4.06 mm | - | - | - |
| 1777823400 | 13.33° C | 97% | 1001.6 hPa | 0 mm | - | - | - |
| 1777822801 | 13.33° C | 97% | 1001.7 hPa | 0 mm | - | - | - |
| 1777822201 | 13.33° C | 97% | 1001.8 hPa | 0 mm | - | - | - |
| 1777821601 | 13.33° C | 97% | 1002.1 hPa | 0 mm | - | - | - |
* Rain latest hour (hover to see other rain measurements)
** Current wind speed in m/s (hover to see current wind gust speed)